Meteo Giornale » Osservazioni meteo Stati Uniti (USA) » Meriden Markham

ore: 13:53 - Osservazioni Meteo Meriden Markham
Lat. 41° 30' N Lon. 72° 49' W Alt. 31 metri s.l.m.

coperto

23 °C

Coperto

Temp. 24 Ore

20 °C

25 °C

Nord

5.5 Km/h

Dew point 21 °C

Umidità 88 %

Visibilità  14 Km

Il sole sorge alle ore 06:17

Il sole tramonta alle ore 19:24

Data e Ora Cielo e Fenomeni T °C DP °C Um. % Pres. hPa Vis. km Vento km/h
Oggi h: 13:53 coperto Coperto 23 21 88 1015 14 N 5.5
Oggi h: 12:53 coperto Coperto 22 21 94 1015 10 S 14.8
Oggi h: 12:29 coperto Coperto 22 21 94 1015 10 S 11.1
Oggi h: 12:18 coperto Coperto 22 21 94 1015 10 S 13
Oggi h: 11:53 coperto Coperto 22 21 94 1016 10 S 13
Oggi h: 10:53 coperto_pioggia Pioggia 22 21 94 1016 10 S 9.3
Oggi h: 10:12 coperto_pioggia Pioggia 21 21 100 1016 11 S 7.4
Oggi h: 09:59 coperto_pioggia Pioggia 21 21 100 1016 13 S 7.4
Oggi h: 09:53 coperto_pioggia Pioggia Foschia 21 21 100 1016 8 S 7.4
Oggi h: 09:41 coperto_pioggia Pioggia Foschia 21 21 100 1016 5 N 5.5
Oggi h: 09:33 coperto_pioggia Pioggia Foschia 21 20 94 1016 5 N 0
Oggi h: 08:53 coperto Coperto 21 20 94 1016 10 S 9.3
Oggi h: 08:37 coperto Coperto 21 20 94 1016 10 S 13
Oggi h: 08:29 coperto Coperto 21 20 94 1016 10 N 9.3
Oggi h: 08:09 coperto_pioggia Pioggia 21 20 94 1016 13 S 9.3
Oggi h: 07:53 foschia Foschia 21 20 94 1016 6 S 11.1
Oggi h: 07:46 foschia Foschia 21 20 94 1016 8 S 11.1
Oggi h: 07:25 foschia Foschia 21 20 94 1016 2 S/SE 11.1
Oggi h: 07:16 foschia Foschia 21 20 94 1016 5 S/SE 7.4
Oggi h: 06:53 foschia Foschia 21 20 94 1016 6 S 9.3
Oggi h: 06:50 foschia Foschia 21 20 94 1016 6 S 9.3
Oggi h: 05:53 coperto Coperto 20 19 93 1016 11 S 7.4
Oggi h: 05:37 foschia Foschia 20 19 93 1016 10 N 7.4
Oggi h: 05:22 foschia Foschia 20 19 93 1016 10 N 5.5
Oggi h: 04:53 coperto Coperto 21 19 88 1016 13 S 9.3
Oggi h: 04:41 coperto Coperto 21 20 94 1017 10 S 7.4
Oggi h: 04:06 foschia Foschia 20 19 93 1017 8 N 0
Oggi h: 03:53 coperto Coperto 21 19 88 1017 14 N 0
Oggi h: 03:44 coperto Coperto 21 19 88 1017 10 N 0
Oggi h: 03:36 coperto Coperto 21 19 88 1017 10 N 0
Oggi h: 02:53 foschia Foschia 21 19 88 1017 8 N 5.5
Oggi h: 02:48 coperto Coperto 21 19 88 1017 11 N 0
Oggi h: 01:53 coperto Coperto 21 19 88 1017 10 N 0
Oggi h: 00:53 coperto Coperto 21 18 82 1018 10 N 0
Ieri h: 23:53 coperto Coperto 21 18 82 1018 10 N 0
Ieri h: 22:53 coperto Coperto 21 18 82 1018 10 N 5.5
Ieri h: 21:53 coperto Coperto 21 18 82 1018 10 N 5.5
Ieri h: 20:53 coperto Coperto 21 17 77 1018 10 N 0
Ieri h: 19:53 coperto Coperto 22 16 68 1018 10 N 5.5
Ieri h: 18:53 coperto Coperto 22 17 73 1019 10 S 9.3
Ieri h: 17:53 coperto Coperto 23 17 68 1019 10 S 14.8
Ieri h: 16:53 molto_nuvoloso Molto Nuvoloso 24 16 60 1018 10 S 11.1
Ieri h: 15:53 nuvoloso Nuvoloso 25 13 47 1019 10 S 13
Ieri h: 14:53 molto_nuvoloso Molto Nuvoloso 25 15 53 1019 10 S 14.8